CAPE
0 0 0 0 0 0 0 0 0 1 60 1136 1261 1320 1276 1176 1130 941 773 594 583 509 240 16 0 0 0 0 0 0 0 0 0 0 0 0 0 0 0 0 0 0 0
0 0 0 0 0 0 0 0 0 0 0 0 0 656 1087 1056 996 808 646 555 474 450 256 55 0 0 0 0 0 0 0 0 0 0 0 0 0 0 0 0 0 0 0
0 0 0 0 0 0 0 0 0 0 0 0 0 0 285 255 386 366 270 258 370 276 215 75 0 0 0 0 0 0 0 0 0 0 0 0 0 0 0 0 0 0 0
0 0 0 0 0 0 0 0 0 0 0 0 0 0 0 0 0 20 58 138 45 62 5 2 0 0 0 0 0 0 0 0 0 0 0 0 0 0 0 0 0 0 0
0 0 0 0 0 0 0 0 0 0 0 0 0 0 0 0 0 0 0 0 4 2 1 1 0 0 0 0 0 0 0 0 0 0 0 0 0 0 0 0 0 0 0
0 0 0 0 0 0 0 0 0 0 0 0 0 0 0 0 0 0 0 0 0 4 4 3 1 1 0 0 0 0 0 0 0 0 0 0 0 0 0 0 0 0 0
0 0 0 0 0 0 0 0 0 0 0 0 0 0 0 0 0 0 0 0 0 0 0 5 16 1 1 0 0 0 0 0 0 0 0 0 0 0 0 0 0 0 0
0 0 0 0 0 0 0 0 0 0 0 0 0 0 0 0 0 0 0 0 0 0 2 16 29 35 19 1 0 0 0 0 0 0 0 0 0 0 0 0 0 0 0
0 0 0 0 0 0 0 0 0 0 0 0 0 0 1 0 0 0 0 0 0 0 2 11 19 39 33 3 0 0 0 0 0 0 0 0 0 0 0 0 0 0 0
0 0 0 0 0 0 0 0 0 0 0 0 0 0 0 0 0 0 0 0 0 1 0 3 16 25 21 16 0 0 0 0 0 0 0 0 0 0 0 0 0 0 0
0 0 0 0 0 0 0 0 0 0 0 0 0 0 0 1 5 4 1 0 1 0 0 0 0 1 21 2 0 0 0 0 0 0 0 0 0 0 0 0 0 0 0
0 0 0 0 0 0 0 0 0 0 0 0 0 0 0 6 13 1 0 0 0 0 0 1 1 1 12 0 0 0 0 0 0 0 0 0 0 0 0 0 0 0 0
0 0 0 0 0 0 0 0 0 0 0 0 0 0 0 0 3 0 0 0 1 0 1 1 3 0 0 1 1 1 1 0 0 0 0 0 0 0 0 0 0 0 0
0 0 0 0 0 0 0 0 0 0 0 0 0 0 0 1 0 0 0 1 0 1 0 0 0 0 1 1 1 2 0 1 0 0 0 0 0 0 0 0 0 0 0
0 0 0 0 0 0 0 0 0 0 0 0 0 0 1 0 0 0 1 1 0 0 0 0 0 0 1 0 1 0 0 1 1 1 0 0 0 0 0 0 0 0 0
0 0 0 0 0 0 0 0 0 0 0 0 0 0 0 0 0 1 0 0 0 0 0 1 1 1 1 0 1 0 1 2 1 1 0 0 0 0 0 0 2 0 0
0 0 0 0 0 0 0 0 0 0 0 0 0 0 0 0 0 0 0 0 1 0 0 0 0 0 0 0 1 1 1 1 2 2 1 0 1 1 0 0 0 0 0
0 0 0 0 0 0 0 0 0 0 0 1 2 2 2 2 0 0 0 1 0 0 0 0 0 0 0 1 1 0 0 1 2 2 1 1 1 0 0 0 0 0 0
0 0 0 0 0 0 0 0 0 1 1 3 2 2 2 2 0 0 0 0 0 0 0 0 0 0 0 0 0 1 1 1 1 0 1 1 0 0 0 0 0 0 0
0 0 0 0 0 0 0 0 2 3 3 3 3 3 3 1 0 0 0 1 1 1 1 1 1 1 0 0 1 0 2 2 1 0 0 1 0 0 0 0 0 0 0
0 0 0 0 0 0 0 0 2 2 3 3 2 2 1 0 0 0 1 1 1 1 1 0 1 1 1 1 1 2 1 1 0 0 1 0 1 0 0 0 0 0 0
0 0 0 0 0 0 0 0 2 2 3 1 0 0 0 0 0 0 1 1 1 0 0 1 0 1 0 0 0 0 1 1 0 0 0 0 0 2 0 0 0 0 0
0 0 0 0 0 0 0 0 0 1 0 0 1 0 0 0 0 1 0 0 1 0 1 1 0 0 1 1 1 2 2 2 1 0 0 0 0 0 0 0 0 0 0
0 0 0 0 0 0 0 1 1 0 1 0 2 0 0 0 0 0 0 0 0 1 1 1 1 1 1 0 0 0 0 0 0 0 0 0 0 0 0 0 0 0 0
0 0 0 0 0 0 1 1 3 0 1 1 1 1 0 0 0 0 0 0 0 0 1 1 0 0 0 1 0 0 0 0 0 0 0 0 0 0 0 0 0 0 0
0 0 0 0 0 0 0 0 0 1 2 0 0 0 0 1 0 0 0 0 0 0 0 1 0 0 0 0 0 1 1 0 0 0 0 0 0 0 0 0 0 0 0
CIN
0 0 0 0 0 0 0 0 0 -1 -391 -20 -16 -19 -19 -26 -28 -53 -111 -170 -141 -116 -180 -422 0 0 0 0 0 0 0 0 0 0 0 0 0 0 0 0 0 0 0
0 0 0 0 0 0 0 0 0 0 0 0 0 -49 -11 -32 -55 -59 -80 -139 -158 -169 -232 -387 0 0 0 0 0 0 0 0 0 0 0 0 0 0 0 0 0 0 0
0 0 0 0 0 0 0 0 0 0 0 0 0 0 -20 -164 -90 -98 -177 -207 -142 -210 -256 -384 0 0 0 0 0 0 0 0 0 0 0 0 0 0 0 0 0 0 0
0 0 0 0 0 0 0 0 0 0 0 0 0 0 0 0 0 -46 -287 -205 -386 -335 -512 -105 0 0 0 0 0 0 0 0 0 0 0 0 0 0 0 0 0 0 0
0 0 0 0 0 0 0 0 0 0 0 0 0 0 0 0 0 0 0 0 -5 -14 -379 0 0 0 0 0 0 0 0 0 0 0 0 0 0 0 0 0 0 0 0
0 0 0 0 0 0 0 0 0 0 0 0 0 0 0 0 0 0 0 0 0 -19 -19 -34 0 0 0 0 0 0 0 0 0 0 0 0 0 0 0 0 0 0 0
0 0 0 0 0 0 0 0 0 0 0 0 0 0 0 0 0 0 0 0 0 0 0 -47 -34 0 0 0 0 0 0 0 0 0 0 0 0 0 0 0 0 0 0
0 0 0 0 0 0 0 0 0 0 0 0 0 0 0 -3 0 0 0 0 0 0 -2 -48 -30 -28 -59 0 0 0 0 0 0 0 0 0 0 0 0 0 0 0 0
0 0 0 0 0 0 0 0 0 0 0 0 0 0 -5 0 0 0 0 0 0 0 -1 -1 -11 -59 -84 -18 0 0 0 0 0 0 0 0 0 0 0 0 0 0 0
0 0 0 0 0 0 0 0 0 0 0 0 0 0 0 0 0 0 0 0 0 -6 0 -0 -1 -1 -55 -50 0 0 0 -0 0 0 0 0 0 0 0 0 0 0 0
0 0 0 0 0 0 0 0 0 0 0 0 0 0 0 -2 -24 -25 -28 0 -9 -1 0 -0 0 -1 -1 -0 0 0 0 0 0 0 0 0 0 0 0 0 0 0 0
0 0 0 0 0 0 0 0 0 0 0 0 0 0 0 -10 -21 -31 0 -0 -0 0 0 0 0 0 -0 -1 0 0 0 0 0 0 0 0 0 0 0 0 0 0 0
0 0 0 0 0 0 0 0 0 0 0 0 0 0 -1 0 -40 0 0 0 0 0 0 0 -0 -0 0 0 0 0 0 0 0 0 0 0 0 0 0 0 0 0 0
0 0 0 0 0 0 0 0 0 0 0 0 0 0 0 -43 0 0 0 0 0 0 0 0 0 0 0 0 0 0 0 0 0 0 0 0 0 0 0 0 0 0 0
0 0 0 0 0 0 0 0 0 0 0 0 0 0 -34 0 0 0 0 0 0 0 0 0 0 0 0 0 0 0 0 0 0 0 0 0 0 0 0 0 0 0 0
0 0 0 0 0 0 0 0 0 0 0 0 0 -5 0 0 0 0 0 0 -1 -0 0 0 0 0 0 0 0 0 0 0 0 0 0 0 0 0 -0 -1 -2 0 0
0 0 0 0 0 0 0 0 0 0 0 -0 -0 0 0 0 0 0 0 0 -0 0 0 0 0 0 0 0 0 0 0 0 0 0 0 0 -0 -1 0 0 0 0 0
0 0 0 0 0 0 0 0 0 0 -0 0 0 -0 0 0 0 0 0 0 -0 0 0 0 0 0 0 0 0 0 0 0 0 0 0 0 0 0 0 0 0 0 0
0 0 0 0 0 0 0 0 0 0 0 0 0 0 0 0 0 0 0 0 0 0 0 0 0 0 0 0 0 0 0 0 0 0 0 0 0 0 0 0 0 0 0
0 0 0 0 0 0 0 0 0 0 0 0 0 0 0 0 0 0 0 0 0 0 0 0 0 0 0 0 0 0 0 0 0 0 0 0 0 0 0 0 0 0 0
0 0 0 0 0 0 0 0 0 0 0 0 0 0 0 0 0 0 0 0 0 0 0 0 0 0 0 0 0 0 0 0 0 0 0 0 0 0 0 0 0 0 0
0 0 0 0 0 0 0 0 0 0 0 0 0 0 0 0 0 0 0 0 0 0 0 0 0 0 0 0 0 0 0 0 0 0 0 0 0 0 0 0 0 0 0
0 0 0 0 0 0 0 0 0 0 0 0 0 0 0 0 0 0 0 0 0 0 0 0 0 0 0 0 0 0 0 0 0 0 0 0 0 0 0 0 0 0 0
0 0 0 0 0 0 0 0 0 0 0 0 0 0 0 0 0 0 0 0 0 0 0 0 0 0 0 0 0 0 0 0 0 0 0 0 0 0 0 0 0 0 0
0 0 0 0 0 0 0 -0 0 -0 0 0 0 0 0 0 0 0 0 0 0 0 0 0 0 0 0 0 0 0 0 0 0 0 0 0 0 0 0 0 0 0 0
0 0 0 0 0 0 0 0 -0 0 0 0 0 0 0 0 0 0 0 0 0 0 0 0 0 0 0 0 0 0 0 0 0 0 0 0 0 0 0 0 0 0 0
Wind_Speed
12 14 16 18 18 20 20 22 23 24 25 24 25 24 25 27 27 25 22 22 22 24 27 27 25 23 22 22 20 18 17 16 14 13 13 15 14 14 11 9 8 6 5
12 15 17 18 19 19 20 23 25 26 29 30 34 30 28 28 26 26 27 26 26 25 27 30 30 29 28 27 25 22 21 19 19 18 15 19 19 16 13 11 11 10 8
12 15 17 17 19 20 22 25 28 31 33 31 33 33 32 33 33 32 31 29 29 30 29 29 31 32 33 31 31 29 27 25 23 22 20 20 22 16 18 17 15 13 12
13 16 18 20 21 24 25 28 31 33 35 31 33 35 36 38 36 38 38 37 33 33 35 36 34 34 36 36 37 35 33 30 30 26 25 21 18 19 19 18 17 15 14
16 19 21 22 23 26 28 29 30 32 31 33 36 36 37 36 37 40 41 40 43 42 39 38 38 40 38 40 39 39 38 35 34 32 28 24 21 19 19 20 18 17 16
17 20 23 23 27 28 30 32 33 36 36 36 38 39 39 41 43 43 45 44 43 44 45 46 43 41 42 41 42 43 42 41 37 36 32 28 26 23 20 20 19 18 17
19 23 24 26 28 31 32 35 37 40 41 41 38 40 44 45 46 47 47 46 47 45 46 48 49 49 48 43 46 45 46 45 43 39 37 32 29 24 21 19 20 19 16
22 25 26 28 30 34 37 38 39 41 40 40 41 41 41 44 49 48 47 46 47 51 50 50 48 48 48 52 43 48 47 46 45 42 38 34 29 26 23 21 20 20 19
28 30 28 30 34 36 40 39 41 43 44 44 45 46 48 47 46 48 47 49 51 48 47 46 44 44 44 53 54 48 49 47 45 44 39 36 32 27 23 22 21 21 22
31 30 31 34 35 37 35 39 43 46 46 47 48 51 51 48 47 47 51 52 50 50 48 48 50 46 44 54 56 52 52 44 44 43 40 36 34 29 25 23 20 19 20
32 31 33 35 36 36 41 45 47 47 49 51 52 53 53 46 47 49 52 53 52 47 49 52 57 53 48 47 56 51 45 46 42 41 41 38 32 29 26 22 20 19 17
32 35 38 39 40 43 47 48 49 52 51 51 51 52 51 48 49 52 53 52 51 49 55 60 59 49 40 38 49 44 43 44 40 39 38 36 34 28 25 24 23 22 20
35 38 40 41 43 46 48 48 49 50 52 51 53 54 51 49 48 49 50 48 50 57 56 49 46 26 22 31 39 43 36 38 37 36 37 35 33 32 26 25 24 21 19
35 38 40 41 44 44 46 48 50 51 53 52 54 50 47 43 42 48 50 51 50 53 50 39 27 16 21 26 25 36 34 29 32 31 32 33 32 32 27 25 23 18 13
37 38 42 44 45 47 48 48 47 51 52 55 56 50 42 38 42 52 50 46 46 40 41 34 16 14 13 23 24 21 25 28 29 24 27 29 28 26 24 25 21 21 15
36 41 43 46 47 47 48 46 49 51 52 58 52 46 41 43 48 47 47 42 30 26 26 23 17 12 7 12 21 15 25 18 21 26 17 21 24 26 23 21 18 18 16
39 41 42 44 43 45 44 46 49 52 55 55 45 42 42 45 43 43 17 30 22 21 22 17 17 14 10 11 8 14 15 18 17 19 16 16 15 17 17 18 17 14 13
39 40 41 42 42 43 44 48 50 52 57 48 40 40 46 43 39 10 19 23 17 19 17 13 14 11 9 6 6 7 9 11 12 13 15 14 14 14 14 14 12 10 12
37 39 36 38 40 43 45 50 52 53 51 46 37 46 42 41 38 16 6 14 13 17 14 10 7 8 5 5 6 6 8 10 10 10 12 13 13 14 14 14 12 11 12
31 33 36 37 42 43 45 50 54 52 50 43 42 44 40 36 28 14 8 15 15 15 12 8 6 2 1 4 5 6 8 9 10 9 10 11 12 14 14 12 12 12 10
28 35 36 37 37 39 46 51 49 47 46 35 38 40 38 33 27 25 13 16 18 19 16 8 5 6 5 4 5 6 6 7 10 10 10 9 12 12 10 11 10 10 8
33 35 33 32 32 40 46 47 47 45 37 40 41 36 32 28 24 13 15 15 17 21 23 21 8 4 5 6 3 4 5 7 8 8 8 10 10 10 9 8 8 9 6
33 30 32 30 37 40 42 44 38 29 38 38 38 30 27 24 20 13 14 14 13 18 23 28 29 27 10 10 9 7 7 7 9 10 9 8 7 6 6 6 7 6 6
29 32 31 34 37 39 38 35 33 37 35 36 37 27 23 20 17 13 12 10 11 11 13 20 24 25 25 6 9 9 8 3 4 7 7 3 3 2 3 4 4 5 5
30 31 28 32 34 36 34 25 32 33 35 34 34 24 20 18 16 13 11 8 7 13 13 11 17 17 15 15 18 15 11 9 8 8 3 2 2 3 3 4 5 5 5
29 30 25 28 30 27 20 8 3 5 26 32 32 23 19 17 15 12 9 8 7 8 10 11 11 9 14 16 14 13 13 13 12 5 2 1 4 4 5 5 6 8 7
Wind_Direction
338 339 340 341 341 344 346 354 353 348 335 323 319 312 304 300 296 293 287 281 275 271 266 266 262 257 256 246 243 246 243 250 241 250 266 278 275 276 259 249 253 259 266
332 335 337 337 336 340 339 338 339 340 335 329 321 315 310 305 298 296 292 284 279 278 267 265 264 260 257 256 243 237 246 246 231 244 257 269 278 270 259 253 249 246 258
328 330 333 333 332 334 335 334 332 330 330 328 326 323 317 311 306 301 295 288 282 276 270 266 265 260 253 252 246 241 238 240 234 225 258 267 271 254 263 260 256 253 254
331 333 330 326 328 327 334 333 328 326 325 328 327 323 318 312 311 305 301 294 283 279 275 269 265 262 255 253 246 242 239 240 233 231 249 263 268 264 265 258 251 250 252
321 322 326 327 330 331 332 333 330 328 328 327 321 319 316 314 313 310 307 302 295 285 277 272 268 265 260 255 248 242 241 239 237 235 235 253 256 263 259 245 241 251 250
325 327 329 332 331 331 330 330 330 328 329 326 320 319 318 316 313 311 308 307 301 294 286 278 271 266 261 257 250 245 239 239 238 238 236 244 245 247 245 251 238 242 252
328 328 329 329 328 327 329 329 328 325 323 321 320 318 315 315 313 311 308 305 303 298 291 284 276 269 263 259 254 248 243 238 239 236 237 245 247 245 248 234 232 232 257
333 331 329 327 328 328 327 327 326 324 323 320 317 317 317 314 311 310 309 306 303 297 294 287 281 274 265 261 250 249 243 240 241 236 236 241 243 243 242 235 221 254 258
324 323 325 326 326 326 325 326 327 327 326 323 321 317 315 313 309 309 307 305 303 301 298 292 284 275 269 261 253 244 242 236 237 238 237 237 241 243 236 228 225 234 247
318 321 322 323 325 327 329 329 327 325 323 321 319 316 313 310 307 306 305 304 304 301 297 293 287 277 270 262 250 245 234 230 233 235 235 234 237 237 232 225 231 236 258
318 321 325 328 327 328 327 326 326 325 324 321 320 318 315 311 309 307 307 306 304 301 298 294 289 283 268 252 246 241 233 229 228 231 232 233 230 234 232 225 230 239 257
320 321 322 324 325 324 325 325 326 326 326 324 321 320 316 314 312 311 309 308 305 302 298 295 293 287 260 242 238 236 235 228 226 228 227 227 228 227 227 229 233 251 254
319 321 322 323 324 325 326 327 328 328 328 327 325 321 317 315 314 315 314 311 304 296 300 305 303 280 236 238 240 238 237 229 227 226 224 223 222 229 228 235 238 246 254
322 324 324 326 326 328 329 329 328 328 328 327 326 324 321 320 318 318 313 304 303 303 307 309 301 274 252 245 241 238 236 223 225 225 222 222 222 227 230 232 245 239 247
322 326 326 326 327 328 329 329 329 328 328 327 325 324 324 323 323 297 291 308 312 319 312 299 292 279 250 255 234 236 227 224 225 226 222 223 226 227 228 236 237 234 221
324 325 326 327 329 329 329 329 330 328 328 327 326 326 327 324 294 293 295 316 331 333 323 294 293 284 282 235 229 222 223 219 216 222 218 216 224 233 233 233 224 214 203
326 327 328 329 330 330 330 329 329 327 326 327 328 328 325 292 288 292 336 336 342 343 317 300 285 283 278 248 221 218 217 222 216 216 211 217 219 221 227 224 223 226 214
327 328 330 331 331 330 331 329 328 327 324 329 330 329 298 291 288 298 347 347 357 343 317 308 281 277 274 237 206 199 195 208 212 208 206 202 195 192 180 198 209 214 224
331 331 332 332 334 332 332 330 327 325 330 330 332 310 290 289 289 266 331 12 25 349 322 317 312 278 265 221 175 185 196 205 204 194 196 190 190 184 177 180 193 214 228
333 334 334 335 333 333 333 329 325 330 328 334 329 299 290 285 273 253 34 31 48 33 353 333 325 334 105 181 184 181 199 196 189 189 189 190 183 170 172 192 198 207 215
334 334 335 335 337 337 331 327 333 332 333 342 332 295 292 289 278 305 31 43 51 75 47 360 345 58 87 130 135 159 166 182 209 208 197 179 182 191 191 200 205 210 195
332 335 337 339 339 335 332 333 331 334 345 341 326 299 298 298 300 33 43 36 53 66 86 82 32 30 67 92 126 131 155 159 165 177 181 196 191 204 208 211 182 165 183
332 338 338 337 332 334 337 330 345 358 351 346 335 304 296 301 307 5 46 48 38 67 88 111 104 101 70 76 88 112 133 154 194 203 194 155 164 188 211 174 171 182 199
334 336 335 327 328 334 338 347 350 343 354 352 337 310 301 307 324 335 19 27 46 41 60 83 94 100 104 191 197 198 202 159 139 116 115 156 164 191 178 176 184 208 206
333 332 328 328 331 326 325 304 332 352 354 359 359 317 307 314 330 323 341 332 357 73 73 67 89 91 85 89 97 94 90 98 106 117 126 171 225 207 236 249 239 228 240
330 315 327 330 313 308 290 273 301 26 329 353 1 335 324 333 344 334 320 327 13 38 54 64 70 56 85 97 93 90 92 99 108 99 106 254 260 256 258 254 255 257 253